H1 CPF 2 NER 2021 2 13 9 044 01 glonass141 H2 1908801 9141 44850 2021 2 13 0 0 0 2021 2 16 23 45 0 900 1 1 0 0 0 1 H9 10 0 59258 0.00000 0 -24446328.558 4474543.024 5754916.624 10 0 59258 900.00000 0 -24938497.632 4686932.794 2588383.883 10 0 59258 1800.00000 0 -25027008.069 4866463.764 -628439.814 10 0 59258 2700.00000 0 -24718289.770 4957741.725 -3833045.532 10 0 59258 3600.00000 0 -24031889.805 4908418.241 -6963115.217 10 0 59258 4500.00000 0 -22999624.383 4671656.062 -9957739.679 10 0 59258 5400.00000 0 -21664232.800 4208367.514 -12758611.947 10 0 59258 6300.00000 0 -20077589.302 3489129.343 -15311171.831 10 0 59258 7200.00000 0 -18298547.986 2495691.166 -17565678.304 10 0 59258 8100.00000 0 -16390511.491 1222011.795 -19478187.934 10 0 59258 9000.00000 0 -14418825.990 -325222.267 -21011419.470 10 0 59258 9900.00000 0 -12448112.449 -2126619.759 -22135487.098 10 0 59258 10800.00000 0 -10539646.640 -4150649.682 -22828487.690 10 0 59258 11700.00000 0 -8748898.200 -6354725.974 -23076930.379 10 0 59258 12600.00000 0 -7123332.184 -8686767.288 -22876000.020 10 0 59258 13500.00000 0 -5700565.135 -11087167.213 -22229649.512 10 0 59258 14400.00000 0 -4506952.541 -13491092.892 -21150519.326 10 0 59258 15300.00000 0 -3556666.173 -15831015.983 -19659686.069 10 0 59258 16200.00000 0 -2851298.838 -18039370.158 -17786245.286 10 0 59258 17100.00000 0 -2380011.695 -20051223.957 -15566736.958 10 0 59258 18000.00000 0 -2120216.298 -21806857.083 -13044425.348 10 0 59258 18900.00000 0 -2038760.786 -23254132.396 -10268447.748 10 0 59258 19800.00000 0 -2093568.356 -24350564.536 -7292849.218 10 0 59258 20700.00000 0 -2235657.073 -25064998.890 -4175522.917 10 0 59258 21600.00000 0 -2411454.040 -25378831.292 -977077.270 10 0 59258 22500.00000 0 -2565304.675 -25286718.218 2240347.269 10 0 59258 23400.00000 0 -2642069.925 -24796748.937 5414288.162 10 0 59258 24300.00000 0 -2589700.788 -23930073.703 8483173.522 10 0 59258 25200.00000 0 -2361680.920 -22720004.776 11387513.842 10 0 59258 26100.00000 0 -1919234.023 -21210629.387 14071049.615 10 0 59258 27000.00000 0 -1233202.952 -19454993.465 16481833.019 10 0 59258 27900.00000 0 -285521.527 -17512932.881 18573223.464 10 0 59258 28800.00000 0 929782.574 -15448643.205 20304778.708 10 0 59258 29700.00000 0 2406095.986 -13328088.958 21643025.509 10 0 59258 30600.00000 0 4124259.748 -11216359.673 22562096.233 10 0 59258 31500.00000 0 6053140.169 -9175081.884 23044220.271 10 0 59258 32400.00000 0 8150707.639 -7259993.275 23080061.876 10 0 59258 33300.00000 0 10365579.777 -5518778.383 22668898.614 10 0 59258 34200.00000 0 12638966.221 -3989254.379 21818637.280 10 0 59258 35100.00000 0 14906936.003 -2697980.997 20545666.877 10 0 59258 36000.00000 0 17102915.064 -1659351.331 18874550.924 10 0 59258 36900.00000 0 19160311.680 -875200.631 16837564.065 10 0 59258 37800.00000 0 21015162.019 -334948.969 14474080.745 10 0 59258 38700.00000 0 22608686.658 -16271.617 11829826.296 10 0 59258 39600.00000 0 23889651.953 113730.759 8956003.589 10 0 59258 40500.00000 0 24816437.709 96911.044 5908310.891 10 0 59258 41400.00000 0 25358724.192 -17928.293 2745868.907 10 0 59258 42300.00000 0 25498726.980 -177337.749 -469922.725 10 0 59258 43200.00000 0 25231926.688 -325724.573 -3676577.566 10 0 59258 44100.00000 0 24567261.670 -407951.466 -6811739.849 10 0 59258 45000.00000 0 23526774.294 -371919.475 -9814402.980 10 0 59258 45900.00000 0 22144724.560 -171024.555 -12626104.664 10 0 59258 46800.00000 0 20466207.406 233617.693 -15192074.414 10 0 59258 47700.00000 0 18545331.287 871274.916 -17462310.043 10 0 59258 48600.00000 0 16443034.311 1760110.622 -19392561.240 10 0 59258 49500.00000 0 14224629.615 2906171.197 -20945200.274 10 0 59258 50400.00000 0 11957183.288 4302891.807 -22089962.149 10 0 59258 51300.00000 0 9706835.070 5931143.601 -22804539.397 10 0 59258 52200.00000 0 7536174.378 7759821.597 -23075019.692 10 0 59258 53100.00000 0 5501781.800 9746949.564 -22896157.659 10 0 59258 54000.00000 0 3652038.858 11841256.279 -22271475.688 10 0 59258 54900.00000 0 2025297.365 13984157.579 -21213191.932 10 0 59258 55800.00000 0 648484.369 16112061.250 -19741977.158 10 0 59258 56700.00000 0 -463799.999 18158898.243 -17886545.482 10 0 59258 57600.00000 0 -1309655.375 20058774.052 -15683087.296 10 0 59258 58500.00000 0 -1899710.720 21748628.934 -13174555.903 10 0 59258 59400.00000 0 -2256419.747 23170795.326 -10409822.254 10 0 59258 60300.00000 0 -2412853.887 24275345.226 -7442714.809 10 0 59258 61200.00000 0 -2411045.715 25022129.125 -4330963.951 10 0 59258 62100.00000 0 -2299954.686 25382421.334 -1135072.200 10 0 59258 63000.00000 0 -2133142.821 25340103.217 2082867.128 10 0 59258 63900.00000 0 -1966260.000 24892335.534 5260379.117 10 0 59258 64800.00000 0 -1854446.212 24049692.651 8335820.395 10 0 59258 65700.00000 0 -1849761.225 22835754.075 11249572.431 10 0 59258 66600.00000 0 -1998750.557 21286171.427 13945191.806 10 0 59258 67500.00000 0 -2340250.487 19447250.773 16370495.582 10 0 59258 68400.00000 0 -2903524.439 17374110.315 18478561.503 10 0 59258 69300.00000 0 -3706808.856 15128490.553 20228624.583 10 0 59258 70200.00000 0 -4756329.441 12776308.104 21586853.970 10 0 59258 71100.00000 0 -6045828.968 10385054.406 22526996.383 10 0 59258 72000.00000 0 -7556626.692 8021146.446 23030874.837 10 0 59258 72900.00000 0 -9258207.491 5747338.323 23088734.152 10 0 59258 73800.00000 0 -11109317.163 3620299.499 22699427.275 10 0 59258 74700.00000 0 -13059519.533 1688458.798 21870439.185 10 0 59258 75600.00000 0 -15051152.100 -9797.945 20617747.826 10 0 59258 76500.00000 0 -17021600.543 -1447503.028 18965524.191 10 0 59258 77400.00000 0 -18905798.968 -2609998.626 16945676.440 10 0 59258 78300.00000 0 -20638853.242 -3495308.734 14597245.637 10 0 59258 79200.00000 0 -22158679.167 -4113976.207 11965663.358 10 0 59258 80100.00000 0 -23408545.995 -4488371.772 9101884.175 10 0 59258 81000.00000 0 -24339419.145 -4651503.933 6061408.536 10 0 59258 81900.00000 0 -24912003.723 -4645379.597 2903213.884 10 0 59258 82800.00000 0 -25098402.305 -4518984.305 -311385.794 10 0 59258 83700.00000 0 -24883316.237 -4325967.311 -3519930.188 10 0 59258 84600.00000 0 -24264738.535 -4122129.567 -6660029.387 10 0 59258 85500.00000 0 -23254107.696 -3962821.475 -9670582.877 10 0 59259 0.00000 0 -21875914.579 -3900361.376 -12492976.296 10 0 59259 900.00000 0 -20166777.207 -3981585.703 -15072232.059 10 0 59259 1800.00000 0 -18174022.278 -4245634.782 -17358089.553 10 0 59259 2700.00000 0 -15953831.072 -4722071.581 -19305993.970 10 0 59259 3600.00000 0 -13569028.228 -5429412.477 -20877972.997 10 0 59259 4500.00000 0 -11086605.530 -6374135.170 -22043383.791 10 0 59259 5400.00000 0 -8575084.708 -7550206.440 -22779515.284 10 0 59259 6300.00000 0 -6101829.721 -8939151.125 -23072033.830 10 0 59259 7200.00000 0 -3730421.166 -10510660.396 -22915263.393 10 0 59259 8100.00000 0 -1518202.540 -12223714.485 -22312294.912 10 0 59259 9000.00000 0 485899.384 -14028173.212 -21274922.854 10 0 59259 9900.00000 0 2243189.398 -15866767.640 -19823410.424 10 0 59259 10800.00000 0 3726579.008 -17677409.279 -17986088.300 10 0 59259 11700.00000 0 4921465.588 -19395719.712 -15798795.073 10 0 59259 12600.00000 0 5826080.270 -20957674.119 -13304170.708 10 0 59259 13500.00000 0 6451291.910 -22302247.408 -10550817.331 10 0 59259 14400.00000 0 6819877.449 -23373951.564 -7592344.236 10 0 59259 15300.00000 0 6965291.532 -24125157.445 -4486316.439 10 0 59259 16200.00000 0 6929989.361 -24518103.489 -1293127.962 10 0 59259 17100.00000 0 6763375.567 -24526507.237 1925177.580 10 0 59259 18000.00000 0 6519467.370 -24136712.450 5106115.414 10 0 59259 18900.00000 0 6254372.106 -23348324.257 8187973.128 10 0 59259 19800.00000 0 6023686.623 -22174306.551 11111005.520 10 0 59259 20700.00000 0 5879928.859 -20640538.246 13818587.469 10 0 59259 21600.00000 0 5870110.183 -18784847.774 16258302.981 10 0 59259 22500.00000 0 6033550.662 -16655566.717 18382949.966 10 0 59259 23400.00000 0 6400028.837 -14309663.212 20151442.279 10 0 59259 24300.00000 0 6988343.386 -11810532.799 21529592.769 10 0 59259 25200.00000 0 7805346.681 -9225537.967 22490763.498 10 0 59259 26100.00000 0 8845490.618 -6623397.796 23016371.772 10 0 59259 27000.00000 0 10090903.938 -4071534.709 23096243.308 10 0 59259 27900.00000 0 11511998.407 -1633486.808 22728806.462 10 0 59259 28800.00000 0 13068579.468 633508.469 21921124.138 10 0 59259 29700.00000 0 14711416.360 2680660.891 20688762.689 10 0 59259 30600.00000 0 16384207.703 4469416.580 19055499.816 10 0 59259 31500.00000 0 18025862.129 5972816.637 17052876.188 10 0 59259 32400.00000 0 19573000.261 7176369.698 14719598.264 10 0 59259 33300.00000 0 20962574.807 8078402.633 12100802.394 10 0 59259 34200.00000 0 22134500.016 8689874.980 9247193.144 10 0 59259 35100.00000 0 23034180.803 9033664.937 6214071.172 10 0 59259 36000.00000 0 23614835.347 9143356.746 3060268.452 10 0 59259 36900.00000 0 23839512.992 9061580.310 -152989.115 10 0 59259 37800.00000 0 23682721.520 8837972.920 -3363269.934 10 0 59259 38700.00000 0 23131593.885 8526849.293 -6508152.635 10 0 59259 39600.00000 0 22186543.628 8184678.717 -9526445.469 10 0 59259 40500.00000 0 20861379.683 7867476.736 -12359384.726 10 0 59259 41400.00000 0 19182874.049 7628222.712 -14951787.980 10 0 59259 42300.00000 0 17189799.172 7514413.759 -17253138.561 10 0 59259 43200.00000 0 14931474.287 7565859.932 -19218579.266 10 0 59259 44100.00000 0 12465880.985 7812815.358 -20809795.091 10 0 59259 45000.00000 0 9857426.540 8274525.710 -21995767.057 10 0 59259 45900.00000 0 7174448.474 8958254.650 -22753382.038 10 0 59259 46800.00000 0 4486564.682 9858831.479 -23067886.405 10 0 59259 47700.00000 0 1861979.973 10958739.917 -22933174.570 10 0 59259 48600.00000 0 -635138.474 12228744.930 -22351906.846 10 0 59259 49500.00000 0 -2947107.372 13629031.610 -21335454.499 10 0 59259 50400.00000 0 -5024893.445 15110808.279 -19903673.262 10 0 59259 51300.00000 0 -6829909.687 16618306.294 -18084510.073 10 0 59259 52200.00000 0 -8335367.739 18091092.189 -15913450.981 10 0 59259 53100.00000 0 -9527131.141 19466594.446 -13432821.476 10 0 59259 54000.00000 0 -10404035.468 20682738.171 -10690953.346 10 0 59259 54900.00000 0 -10977663.933 21680576.372 -7741234.862 10 0 59259 55800.00000 0 -11271589.973 22406806.682 -4641063.521 10 0 59259 56700.00000 0 -11320120.951 22816067.440 -1450722.419 10 0 59259 57600.00000 0 -11166598.049 22872916.467 1767797.189 10 0 59259 58500.00000 0 -10861325.901 22553409.389 4952003.491 10 0 59259 59400.00000 0 -10459221.074 21846211.691 8040118.012 10 0 59259 60300.00000 0 -10017279.770 20753198.152 10972271.932 10 0 59259 61200.00000 0 -9591972.355 19289515.047 13691661.538 10 0 59259 62100.00000 0 -9236675.045 17483103.231 16145640.864 10 0 59259 63000.00000 0 -8999246.849 15373702.281 18286731.021 10 0 59259 63900.00000 0 -8919853.401 13011377.609 20073527.610 10 0 59259 64800.00000 0 -9029128.592 10454631.697 21471489.885 10 0 59259 65700.00000 0 -9346750.581 7768177.446 22453597.711 10 0 59259 66600.00000 0 -9880491.375 5020465.296 23000864.826 10 0 59259 67500.00000 0 -10625779.559 2281065.392 23102699.585 10 0 59259 68400.00000 0 -11565794.564 -381988.231 22757107.037 10 0 59259 69300.00000 0 -12672089.014 -2904783.050 21970728.771 10 0 59259 70200.00000 0 -13905714.018 -5229937.636 20758719.744 10 0 59259 71100.00000 0 -15218801.616 -7308737.194 19144463.955 10 0 59259 72000.00000 0 -16556539.572 -9102907.725 17159133.580 10 0 59259 72900.00000 0 -17859457.411 -10585956.208 14841098.875 10 0 59259 73800.00000 0 -19065929.327 -11744021.755 12235198.853 10 0 59259 74700.00000 0 -20114790.076 -12576202.547 9391885.486 10 0 59259 75600.00000 0 -20947954.776 -13094345.031 6366256.684 10 0 59259 76500.00000 0 -21512932.651 -13322304.081 3216995.693 10 0 59259 77400.00000 0 -21765128.594 -13294704.978 5236.871 10 0 59259 78300.00000 0 -21669834.720 -13055259.151 -3206620.505 10 0 59259 79200.00000 0 -21203826.641 -12654704.640 -6356127.277 10 0 59259 80100.00000 0 -20356495.518 -12148458.378 -9382004.131 10 0 59259 81000.00000 0 -19130466.308 -11594080.009 -12225341.579 10 0 59259 81900.00000 0 -17541674.272 -11048655.139 -14830755.925 10 0 59259 82800.00000 0 -15618894.801 -10566209.718 -17147477.642 10 0 59259 83700.00000 0 -13402744.800 -10195266.009 -19130350.021 10 0 59259 84600.00000 0 -10944196.315 -9976644.707 -20740717.818 10 0 59259 85500.00000 0 -8302663.950 -9941607.289 -21947187.820 10 0 59260 0.00000 0 -5543745.610 -10110418.112 -22726246.117 10 0 59260 900.00000 0 -2736710.585 -10491388.240 -23062719.763 10 0 59260 1800.00000 0 48159.856 -11080440.946 -22950073.647 10 0 59260 2700.00000 0 2742268.505 -11861219.515 -22390536.907 10 0 59260 3600.00000 0 5281322.838 -12805731.081 -21395056.570 10 0 59260 4500.00000 0 7607770.558 -13875500.605 -19983079.445 10 0 59260 5400.00000 0 9672949.239 -15023185.583 -18182166.912 10 0 59260 6300.00000 0 11438861.002 -16194583.168 -16027450.370 10 0 59260 7200.00000 0 12879499.092 -17330944.545 -13560938.454 10 0 59260 8100.00000 0 13981672.340 -18371498.383 -10830689.997 10 0 59260 9000.00000 0 14745294.751 -19256076.387 -7889869.425 10 0 59260 9900.00000 0 15183129.969 -19927729.677 -4795703.721 10 0 59260 10800.00000 0 15320003.608 -20335225.238 -1608361.962 10 0 59260 11700.00000 0 15191518.678 -20435316.932 1610220.079 10 0 59260 12600.00000 0 14842330.317 -20194695.335 4797546.660 10 0 59260 13500.00000 0 14324054.350 -19591534.429 7891776.219 10 0 59260 14400.00000 0 13692899.260 -18616570.281 10832919.095 10 0 59260 15300.00000 0 13007122.486 -17273666.900 13563995.522 10 0 59260 16200.00000 0 12324418.690 -15579845.754 16032131.804 10 0 59260 17100.00000 0 11699350.138 -13564777.984 18189574.143 10 0 59260 18000.00000 0 11180927.008 -11269760.845 19994601.416 10 0 59260 18900.00000 0 10810438.608 -8746220.637 21412320.441 10 0 59260 19800.00000 0 10619625.753 -6053803.910 22415329.668 10 0 59260 20700.00000 0 10629270.134 -3258135.462 22984239.662 10 0 59260 21600.00000 0 10848259.057 -428334.768 23108041.467 10 0 59260 22500.00000 0 11273164.331 2365607.712 22784316.532 10 0 59260 23400.00000 0 11888352.853 5055487.341 22019284.523 10 0 59260 24300.00000 0 12666624.639 7577466.974 20827688.124 10 0 59260 25200.00000 0 13570352.359 9874478.243 19232516.517 10 0 59260 26100.00000 0 14553075.727 11898344.280 17264572.036 10 0 59260 27000.00000 0 15561485.197 13611536.952 14961887.201 10 0 59260 27900.00000 0 16537713.058 14988496.377 12369001.953 10 0 59260 28800.00000 0 17421836.840 16016458.092 9536113.752 10 0 59260 29700.00000 0 18154490.630 16695753.514 6518115.657 10 0 59260 30600.00000 0 18679474.773 17039570.970 3373539.922 10 0 59260 31500.00000 0 18946253.874 17073187.009 163426.954 10 0 59260 32400.00000 0 18912237.100 16832700.012 -3049858.768 10 0 59260 33300.00000 0 18544743.406 16363319.212 -6203842.801 10 0 59260 34200.00000 0 17822567.160 15717281.181 -9237160.724 10 0 59260 35100.00000 0 16737076.253 14951481.984 -12090759.603 10 0 59260 36000.00000 0 15292794.340 14124925.437 -14709056.658 10 0 59260 36900.00000 0 13507440.743 13296096.037 -17041031.494 10 0 59260 37800.00000 0 11411424.468 12520368.458 -19041229.697 10 0 59260 38700.00000 0 9046811.985 11847564.066 -20670657.400 10 0 59260 39600.00000 0 6465810.899 11319758.653 -21897548.624 10 0 59260 40500.00000 0 3728832.114 10969434.859 -22697989.993 10 0 59260 41400.00000 0 902210.896 10818057.981 -23056390.354 10 0 59260 42300.00000 0 -1944318.128 10875135.762 -22965785.986 10 0 59260 43200.00000 0 -4740286.885 11137802.051 -22427975.523 10 0 59260 44100.00000 0 -7417189.549 11590941.886 -21453482.063 10 0 59260 45000.00000 0 -9911095.634 12207852.444 -20061343.433 10 0 59260 45900.00000 0 -12165071.819 12951411.530 -18278734.992 10 0 59260 46800.00000 0 -14131311.922 13775703.651 -16140432.642 10 0 59260 47700.00000 0 -15772886.803 14628034.304 -13688126.958 10 0 59260 48600.00000 0 -17065042.167 15451246.629 -10969602.322 10 0 59260 49500.00000 0 -17995991.389 16186241.803 -8037797.579 10 0 59260 50400.00000 0 -18567171.787 16774595.943 -4949767.262 10 0 59260 51300.00000 0 -18792955.586 17161162.385 -1765564.328 10 0 59260 52200.00000 0 -18699829.723 17296548.934 1452933.192 10 0 59260 53100.00000 0 -18325081.094 17139365.272 4643228.012 10 0 59260 54000.00000 0 -17715044.479 16658145.659 7743418.015 10 0 59260 54900.00000 0 -16922988.541 15832865.973 10693395.372 10 0 59260 55800.00000 0 -16006730.108 14655991.487 13436007.017 10 0 59260 56700.00000 0 -15026077.949 13133011.540 15918154.336 10 0 59260 57600.00000 0 -14040213.892 11282438.934 18091811.439 10 0 59260 58500.00000 0 -13105121.158 9135274.092 19914943.230 10 0 59260 59400.00000 0 -12271167.261 6733956.121 21352306.696 10 0 59260 60300.00000 0 -11580941.989 4130843.928 22376121.255 10 0 59260 61200.00000 0 -11067439.954 1386289.628 22966596.407 10 0 59260 62100.00000 0 -10752662.824 -1433616.988 23112307.638 10 0 59260 63000.00000 0 -10646698.842 -4259540.974 22810414.147 10 0 59260 63900.00000 0 -10747317.565 -7021530.118 22066714.593 10 0 59260 64800.00000 0 -11040096.594 -9651671.176 20895539.806 10 0 59260 65700.00000 0 -11499075.193 -12086666.212 19319484.062 10 0 59260 66600.00000 0 -12087908.036 -14270223.670 17368979.266 10 0 59260 67500.00000 0 -12761471.575 -16155166.287 15081719.094 10 0 59260 68400.00000 0 -13467856.692 -17705169.112 12501942.846 10 0 59260 69300.00000 0 -14150664.900 -18896055.684 9679591.476 10 0 59260 70200.00000 0 -14751512.349 -19716598.475 6669350.827 10 0 59260 71100.00000 0 -15212636.669 -20168789.911 3529599.485 10 0 59260 72000.00000 0 -15479496.783 -20267572.190 321280.976 10 0 59260 72900.00000 0 -15503255.515 -20040036.818 -2893278.170 10 0 59260 73800.00000 0 -15243039.179 -19524127.031 -6051581.552 10 0 59260 74700.00000 0 -14667877.299 -18766897.476 -9092183.096 10 0 59260 75600.00000 0 -13758238.718 -17822404.453 -11955889.952 10 0 59260 76500.00000 0 -12507097.252 -16749315.917 -14586923.783 10 0 59260 77400.00000 0 -10920479.839 -15608342.551 -16934016.755 10 0 59260 78300.00000 0 -9017472.046 -14459599.021 -18951419.963 10 0 59260 79200.00000 0 -6829678.820 -13360007.549 -20599803.800 10 0 59260 80100.00000 0 -4400161.594 -12360854.169 -21847031.950 10 0 59260 81000.00000 0 -1781895.057 -11505601.506 -22668793.470 10 0 59260 81900.00000 0 964192.764 -10828050.840 -23049080.323 10 0 59260 82800.00000 0 3771515.655 -10350931.315 -22980500.916 10 0 59260 83700.00000 0 6570364.130 -10084975.800 -22464423.527 10 0 59260 84600.00000 0 9290574.505 -10028522.152 -21510946.979 10 0 59260 85500.00000 0 11864220.772 -10167656.204 -20138699.290 10 0 59261 0.00000 0 14228217.174 -10476889.705 -18374468.593 10 0 59261 900.00000 0 16326723.032 -10920343.799 -16252673.534 10 0 59261 1800.00000 0 18113250.221 -11453386.773 -13814684.612 10 0 59261 2700.00000 0 19552384.974 -12024656.221 -11108009.287 10 0 59261 3600.00000 0 20621054.445 -12578378.684 -8185357.983 10 0 59261 4500.00000 0 21309285.133 -13056887.919 -5103609.622 10 0 59261 5400.00000 0 21620423.551 -13403234.321 -1922697.623 10 0 59261 6300.00000 0 21570811.626 -13563774.497 1295561.278 10 0 59261 7200.00000 0 21188932.390 -13490631.046 4488671.855 10 0 59261 8100.00000 0 20514063.678 -13143918.353 7594674.929 10 0 59261 9000.00000 0 19594498.291 -12493640.429 10553347.798 10 0 59261 9900.00000 0 18485406.664 -11521180.859 13307367.082 10 0 59261 10800.00000 0 17246432.946 -10220322.311 15803411.857 10 0 59261 11700.00000 0 15939125.993 -8597752.932 17993186.344 10 0 59261 12600.00000 0 14624313.057 -6673038.428 19834343.244 10 0 59261 13500.00000 0 13359525.847 -4478060.829 21291291.068 10 0 59261 14400.00000 0 12196585.833 -2055946.703 22335871.136 10 0 59261 15300.00000 0 11179448.747 540471.279 22947892.398 10 0 59261 16200.00000 0 10342397.168 3250596.736 23115514.904 10 0 59261 17100.00000 0 9708655.490 6008336.849 22835475.339 10 0 59261 18000.00000 0 9289484.185 8744602.130 22113150.715 10 0 59261 18900.00000 0 9083790.468 11389936.946 20962459.037 10 0 59261 19800.00000 0 9078271.334 13877173.634 19405598.389 10 0 59261 20700.00000 0 9248083.069 16144001.650 17472628.679 10 0 59261 21600.00000 0 9558009.584 18135346.561 15200902.934 10 0 59261 22500.00000 0 9964081.259 19805460.950 12634357.777 10 0 59261 23400.00000 0 10415577.068 21119640.684 9822675.425 10 0 59261 24300.00000 0 10857326.495 22055495.121 6820332.099 10 0 59261 25200.00000 0 11232214.789 22603717.948 3685550.164 10 0 59261 26100.00000 0 11483786.066 22768325.816 479173.612 10 0 59261 27000.00000 0 11558834.088 22566354.134 -2736511.673 10 0 59261 27900.00000 0 11409870.489 22027022.129 -5898989.994 10 0 59261 28800.00000 0 10997364.920 21190401.691 -8946736.186 10 0 59261 29700.00000 0 10291660.802 20105645.715 -11820419.885 10 0 59261 30600.00000 0 9274483.763 18828850.440 -14464069.383 10 0 59261 31500.00000 0 7939977.066 17420642.072 -16826171.359 10 0 59261 32400.00000 0 6295218.134 15943589.811 -18860684.142 10 0 59261 33300.00000 0 4360192.431 14459554.870 -20527943.889 10 0 59261 34200.00000 0 2167223.967 13027087.848 -21795445.241 10 0 59261 35100.00000 0 -240115.170 11698984.701 -22638480.774 10 0 59261 36000.00000 0 -2808571.796 10520104.651 -23040626.449 10 0 59261 36900.00000 0 -5477190.288 9525542.217 -22994063.397 10 0 59261 37800.00000 0 -8179620.778 8739230.216 -22499729.842 10 0 59261 38700.00000 0 -10846660.757 8173032.254 -21567300.255 10 0 59261 39600.00000 0 -13408924.020 7826362.230 -20214992.377 10 0 59261 40500.00000 0 -15799525.622 7686346.008 -18469206.149 10 0 59261 41400.00000 0 -17956670.827 7728517.214 -16364001.897 10 0 59261 42300.00000 0 -19826040.048 7918016.567 -13940428.396 10 0 59261 43200.00000 0 -21362870.495 8211242.628 -11245714.409 10 0 59261 44100.00000 0 -22533648.136 8557882.862 -8332339.983 10 0 59261 45000.00000 0 -23317339.992 8903237.770 -5257006.379 10 0 59261 45900.00000 0 -23706116.416 9190738.593 -2079525.345 10 0 59261 46800.00000 0 -23705534.522 9364551.077 1138349.887 10 0 59261 47700.00000 0 -23334176.676 9372154.370 4334128.399 10 0 59261 48600.00000 0 -22622761.141 9166785.579 7445796.296 10 0 59261 49500.00000 0 -21612763.745 8709646.414 10413018.409 10 0 59261 50400.00000 0 -20354609.771 7971778.761 13178303.518 10 0 59261 51300.00000 0 -18905513.337 6935530.273 15688110.891 10 0 59261 52200.00000 0 -17327055.377 5595548.411 17893877.324 10 0 59261 53100.00000 0 -15682602.012 3959261.316 19752945.672 10 0 59261 54000.00000 0 -14034671.085 2046825.247 21229378.138 10 0 59261 54900.00000 0 -12442356.122 -109459.699 22294639.870 10 0 59261 55800.00000 0 -10958914.293 -2466241.887 22928140.900 10 0 59261 56700.00000 0 -9629617.690 -4970674.141 23117627.138 10 0 59261 57600.00000 0 -8489956.152 -7562370.195 22859413.697 10 0 59261 58500.00000 0 -7564265.284 -10175681.988 22158456.517 10 0 59261 59400.00000 0 -6864835.820 -12742205.194 21028260.973 10 0 59261 60300.00000 0 -6391540.670 -15193410.885 19490628.776 10 0 59261 61200.00000 0 -6131994.890 -17463295.764 17575247.266 10 0 59261 62100.00000 0 -6062241.801 -19490942.380 15319127.886 10 0 59261 63000.00000 0 -6147936.785 -21222883.949 12765903.287 10 0 59261 63900.00000 0 -6345979.574 -22615175.887 9964995.327 10 0 59261 64800.00000 0 -6606526.949 -23635087.824 6970668.697 10 0 59261 65700.00000 0 -6875301.544 -24262345.179 3840987.373 10 0 59261 66600.00000 0 -7096099.641 -24489867.635 636693.422 10 0 59261 67500.00000 0 -7213391.937 -24323972.788 -2579970.520 10 0 59261 68400.00000 0 -7174906.813 -23784035.451 -5746472.250 10 0 59261 69300.00000 0 -6934085.904 -22901616.065 -8801210.487 10 0 59261 70200.00000 0 -6452306.680 -21719094.188 -11684720.464 10 0 59261 71100.00000 0 -5700776.303 -20287864.074 -14340840.303 10 0 59261 72000.00000 0 -4662014.772 -18666168.195 -16717814.413 10 0 59261 72900.00000 0 -3330862.616 -16916659.964 -18769311.463 10 0 59261 73800.00000 0 -1714968.548 -15103798.572 -20455336.270 10 0 59261 74700.00000 0 165265.332 -13291186.030 -21743017.001 10 0 59261 75600.00000 0 2277280.229 -11538958.871 -22607251.904 10 0 59261 76500.00000 0 4577475.599 -9901344.527 -23031202.596 10 0 59261 77400.00000 0 7012796.636 -8424485.360 -23006624.105 10 0 59261 78300.00000 0 9522728.560 -7144621.662 -22534025.256 10 0 59261 79200.00000 0 12041614.770 -6086709.634 -21622656.346 10 0 59261 80100.00000 0 14501202.038 -5263531.752 -20290324.548 10 0 59261 81000.00000 0 16833306.450 -4675335.891 -18563040.921 10 0 59261 81900.00000 0 18972488.614 -4310017.085 -16474506.189 10 0 59261 82800.00000 0 20858626.241 -4143832.742 -14065445.793 10 0 59261 83700.00000 0 22439276.572 -4142619.498 -11382807.663 10 0 59261 84600.00000 0 23671730.122 -4263458.581 -8478838.885 10 0 59261 85500.00000 0 24524670.192 -4456717.699 -5410060.045 99